Zurück zum Katalog

FREGAT R/B

AktivHEO
NORAD 38996·ROCKET BODY·🇷🇺 Russia

Gestartet Nov 14, 2012 von Plesetsk Cosmodrome

Loading…

Nächste Überflüge (nächste 24 Stunden)

TLE

AktuellSource: Space-Track

Epoche: Sep 13, 2026, 13:04 UTC

1 38996U 12063B   26256.54499198 -.00000293  00000-0  00000-0 0  9992
2 38996  63.9931 344.4962 7358313 229.5432  38.9054  2.00211239101086

Verfolge FREGAT R/B in Echtzeit mit AllMySat

Download on the App Store